sat.trackr.live / text

‹ back to catalog

ONEWEB-0696

NORAD 56723 · 2023-068P

PAYLOAD ACTIVE UNKNOWN

§ Identity

Operator
Country
UK
Launch date
2023-05-20
Launch site
AFWTR
Launch vehicle
Mass (kg)
RCS (m²)

Purposes: comms

External: N2YO · Heavens-Above · Gunter

§ Orbital elements

Epoch: 2026-05-24T21:34:42.971808Z

Period
109.46 min
Inclination
87.8988°
Eccentricity
0.0001599
Mean motion
13.15546740 rev/d
Perigee alt
1,200.6 km
Apogee alt
1,203.0 km
Semi-major
7,579.9 km
B*
-4.8578e-4
RAAN
263.8625°
Arg perigee
89.5450°
Mean anomaly
270.5863°
Rev number
14,630

§ Raw data

ONEWEB-06961 56723U 23068P   26144.89910847 -.00000170  00000+0 -48578-3 0  99992 56723  87.8988 263.8625 0001599  89.5450 270.5863 13.15546740146301

JSON: /api/v1/satellites/56723 · /tle

For live sub-satellite position, see the globe view (requires WebGL).

§ Visibility from observer

Set your observer location to see the next 7 days of passes ≥ 10°. The values pass through the URL so the page stays shareable.

No JS? Fill the form by hand. The geolocation button needs JavaScript.